Flag for Pakistan Weather past 2 weeks in Peshawar, Pakistan

Now
95 °F

Scattered clouds.


Feels Like: 95 °F
Forecast: 69 / 100 °F
Wind: 9 mph from Northeast

Location: Peshawar Airport

Current Time: May 27, 2015 at 7:11:59 PM

Latest Report: May 27, 2015 at 6:00 PM


Visibility: 3 mi

Pressure: 29.65 "Hg

Humidity: 32%

Dew point: 61 °F

Location of PeshawarLocation

Historic Weather in Peshawar — Graph

°F

Peshawar temperature yesterday

Maximum temperature yesterday: 99 °F (at 4:00 PM)
Minimum temperature yesterday: 77 °F (at 5:00 AM)
Average temperature yesterday: 88 °F

Past Weeks' High & Low Weather Summary

 TemperatureHumidityPressure
High104 °F (May 21, 3:00 PM)88% (May 12, 6:00 PM)29.92 "Hg (May 12, 6:00 PM)
Low64 °F (May 13, 5:00 AM)19% (May 25, 6:00 PM)29.50 "Hg (May 23, 3:00 PM)
Average84 °F48%29.70 "Hg
* Reported May 12 6:00 PM — May 27 6:00 PM, Peshawar, Weather by CustomWeather, © 2015

Note: Actual official high and low records may vary slightly from our data, if they occured in-between our weather recording intervals... More about our weather records

Advertising

Peshawar weather history for previous 24 hours

 ConditionsComfort  
Time TempWeatherWind HumidityBarometerVisibility
6:00 PM
Wed, May 27
95 °FScattered clouds.9 mph32%29.65 "Hg3 mi
5:00 PM97 °FScattered clouds.9 mph30%29.65 "Hg5 mi
4:00 PM99 °FScattered clouds.9 mph29%29.65 "Hg5 mi
3:00 PM97 °FScattered clouds.9 mph30%29.68 "Hg5 mi
2:00 PM97 °FScattered clouds.12 mph32%29.68 "Hg5 mi
1:00 PM97 °FScattered clouds.12 mph32%29.71 "Hg5 mi
12:00 PM93 °FExtremely hot.7 mph34%29.74 "HgN/A
11:00 AM91 °FHaze.7 mph36%29.77 "Hg3 mi
10:00 AM88 °FHaze.7 mph38%29.77 "Hg2 mi
9:00 AM86 °FHaze.5 mph35%29.77 "Hg2 mi
8:00 AM81 °FHaze.5 mph42%29.74 "Hg2 mi
7:00 AM75 °FHaze.5 mph47%29.74 "Hg3 mi
6:00 AM72 °FHaze.5 mph57%29.71 "Hg3 mi
5:00 AM72 °FHaze.7 mph53%29.68 "Hg2 mi
4:00 AM72 °FClear.5 mph53%29.68 "Hg2 mi
3:00 AM75 °FClear.5 mph54%29.68 "Hg2 mi
2:00 AM77 °FClear.7 mph51%29.68 "Hg2 mi
12:00 AM81 °FClear.7 mph42%29.71 "Hg2 mi
11:00 PM
Tue, May 26
82 °FClear.5 mph40%29.71 "Hg2 mi
10:00 PM84 °FClear.5 mph35%29.68 "Hg2 mi
9:00 PM86 °FClear.7 mph31%29.68 "Hg2 mi
8:00 PM88 °FHaze.9 mph29%29.65 "Hg3 mi
7:00 PM91 °FHaze.9 mph26%29.62 "Hg5 mi
Weather by CustomWeather, © 2015

See weather overviewHow to use our weather pages